Weather History for KHWV - November, 2013

Change the Weather History Date:

Saturday, November 23, 2013

  Actual Average (KISP) Record (KISP)
Temperature  
Mean Temperature 43 °F 43 °F  
Max Temperature 52 °F 51 °F 70 °F (1992)
Min Temperature 32 °F 35 °F 13 °F (1989)
Degree Days  
Heating Degree Days 22 22  
Month to date heating degree days 431  
Since 1 July heating degree days 851  
Cooling Degree Days 0 0  
Month to date cooling degree days 0  
Year to date cooling degree days 787  
Moisture  
Dew Point 26 °F    
Average Humidity 53    
Maximum Humidity 93    
Minimum Humidity 35    
Precipitation  
Precipitation 0.00 in 0.13 in 1.38 in (1992)
Month to date precipitation 2.75  
Year to date precipitation 41.26  
Snow  
Snow 0.00 in 0.00 in 7.60 in (1989)
Month to date snowfall 0.2  
Since 1 July snowfall 0.2  
Snow Depth -    
Sea Level Pressure  
Sea Level Pressure 29.93 in    
Wind  
Wind Speed 13 mph (WNW)    
Max Wind Speed 24 mph    
Max Gust Speed 37 mph    
Visibility 10 miles    
Events Rain    
T = Trace of Precipitation, MM = Missing Value Source: NWS Daily Summary

Daily Weather History Graph

Daily Weather History Graph

Search for Another Location

Airport or City:

Trip Planner

Search our weather history database for the weather conditions in past years. The results will help you decide how hot, cold, wet, or windy it might be!

Date:

Astronomy

Nov. 23, 2013 Rise Set
Actual Time 6:48 AM EST 4:27 PM EST
Civil Twilight 6:18 AM EST 4:57 PM EST
Nautical Twilight 5:44 AM EST 5:31 PM EST
Astronomical Twilight 5:11 AM EST 6:03 PM EST
Moon 9:54 PM EST (11/23) 11:02 AM EST (11/23)
Length of Visible Light 10h 39m
Length of Day
9h 39m
Waning Gibbous, 70% of the Moon is Illuminated
Nov 23
Waning Gibbous
Nov 25
Last Quarter
Dec 2
New
Dec 9
First Quarter
Dec 17
Full

Hourly Weather History & Observations

Time (EST) Temp. Windchill Dew Point Humidity Pressure Visibility Wind Dir Wind Speed Gust Speed Precip Events Conditions
12:56 AM 50.0 °F - 48.0 °F 93% 29.89 in 7.0 mi West 4.6 mph - N/A   Overcast
1:56 AM 52.0 °F - 46.9 °F 83% 29.89 in 10.0 mi WNW 11.5 mph - N/A   Mostly Cloudy
2:56 AM 51.1 °F - 42.1 °F 71% 29.89 in 10.0 mi NW 12.7 mph - N/A   Partly Cloudy
3:56 AM 48.9 °F - 37.0 °F 64% 29.91 in 10.0 mi WNW 16.1 mph 21.9 mph N/A   Clear
4:56 AM 46.0 °F 39.3 °F 35.1 °F 66% 29.92 in 10.0 mi NW 16.1 mph 24.2 mph N/A   Clear
5:56 AM 44.1 °F 37.1 °F 33.1 °F 65% 29.94 in 10.0 mi NW 15.0 mph - N/A   Clear
6:56 AM 42.1 °F 33.9 °F 30.0 °F 62% 29.97 in 10.0 mi NNW 17.3 mph - N/A   Clear
7:56 AM 42.1 °F 34.2 °F 28.0 °F 58% 29.99 in 10.0 mi NNW 16.1 mph 23.0 mph N/A   Clear
8:56 AM 43.0 °F 35.4 °F 27.0 °F 53% 29.99 in 10.0 mi NW 16.1 mph 31.1 mph 0.00 in   Clear
9:56 AM 44.1 °F 35.4 °F 26.1 °F 49% 29.99 in 10.0 mi NW 21.9 mph 27.6 mph 0.00 in   Clear
10:56 AM 46.0 °F 39.3 °F 25.0 °F 44% 29.98 in 10.0 mi NNW 16.1 mph 23.0 mph 0.00 in   Clear
11:56 AM 46.0 °F 39.6 °F 23.0 °F 40% 29.95 in 10.0 mi NNW 15.0 mph 25.3 mph 0.00 in Rain Light Rain
12:56 PM 46.9 °F - 21.9 °F 37% 29.92 in 10.0 mi NW 12.7 mph - 0.00 in   Clear
1:56 PM 46.9 °F - 21.0 °F 36% 29.91 in 10.0 mi WNW 11.5 mph - N/A   Clear
2:56 PM 45.0 °F 39.3 °F 21.9 °F 40% 29.90 in 10.0 mi WNW 11.5 mph - N/A   Clear
3:56 PM 43.0 °F 37.7 °F 21.0 °F 42% 29.90 in 10.0 mi West 9.2 mph - N/A   Clear
4:56 PM 42.1 °F 37.1 °F 19.9 °F 41% 29.90 in 10.0 mi West 8.1 mph - N/A   Clear
5:56 PM 41.0 °F 39.0 °F 19.0 °F 41% 29.89 in 10.0 mi WNW 3.5 mph - N/A   Clear
6:56 PM 42.1 °F 36.1 °F 19.0 °F 40% 29.89 in 10.0 mi West 10.4 mph - 0.00 in Rain Light Rain
7:56 PM 39.0 °F 28.3 °F 25.0 °F 57% 29.91 in 10.0 mi WNW 24.2 mph 36.8 mph 0.00 in Rain Light Rain
8:56 PM 36.0 °F 26.0 °F 24.1 °F 62% 29.92 in 10.0 mi WNW 17.3 mph 26.5 mph 0.00 in   Mostly Cloudy
9:56 PM 35.1 °F 24.1 °F 19.0 °F 52% 29.93 in 10.0 mi NW 19.6 mph 25.3 mph 0.00 in   Partly Cloudy
10:56 PM 34.0 °F 23.4 °F 9.0 °F 35% 29.94 in 10.0 mi NW 17.3 mph 33.4 mph 0.00 in   Partly Cloudy
11:56 PM 32.0 °F 19.8 °F 12.0 °F 44% 29.95 in 10.0 mi West 20.7 mph 31.1 mph 0.00 in   Clear